Time,TemperatureF,DewpointF,PressureIn,WindDirection,WindDirectionDegrees,WindSpeedMPH,WindSpeedGustMPH,Humidity,HourlyPrecipIn,Conditions,Clouds,dailyrainin,SoftwareType,DateUTC
2013-02-18 00:18:00,-8.1,-13.6,30.04,WSW,247,8.9,-999.0,76,-99.99,,,0.00,Acu-Link.com,2013-02-18 09:18:00,
2013-02-18 00:34:00,-8.5,-14.0,30.06,WSW,247,7.8,-999.0,76,-99.99,,,0.00,Acu-Link.com,2013-02-18 09:34:00,
2013-02-18 00:49:00,-8.9,-14.4,30.06,WSW,247,4.7,-999.0,76,-99.99,,,0.00,Acu-Link.com,2013-02-18 09:49:00,
2013-02-18 01:04:00,-9.2,-14.7,30.06,SW,225,4.7,-999.0,76,-99.99,,,0.00,Acu-Link.com,2013-02-18 10:04:00,
2013-02-18 01:19:00,-9.6,-15.1,30.07,WSW,247,5.3,-999.0,76,-99.99,,,0.00,Acu-Link.com,2013-02-18 10:19:00,
2013-02-18 01:34:00,-9.9,-15.4,30.07,WSW,247,3.7,-999.0,76,-99.99,,,0.00,Acu-Link.com,2013-02-18 10:34:00,
2013-02-18 01:50:00,-10.7,-16.1,30.07,SW,225,1.7,-999.0,76,-99.99,,,0.00,Acu-Link.com,2013-02-18 10:50:00,
2013-02-18 02:20:00,-11.4,-16.8,30.09,SW,225,2.7,-999.0,76,-99.99,,,0.00,Acu-Link.com,2013-02-18 11:20:00,
2013-02-18 02:36:00,-11.0,-16.4,30.09,SW,225,2.2,-999.0,76,-99.99,,,0.00,Acu-Link.com,2013-02-18 11:36:00,
2013-02-18 02:51:00,-12.1,-17.5,30.09,SW,225,1.7,-999.0,76,-99.99,,,0.00,Acu-Link.com,2013-02-18 11:51:00,
2013-02-18 03:08:00,-12.3,-17.7,30.10,SW,225,2.7,-999.0,76,-99.99,,,0.00,Acu-Link.com,2013-02-18 12:08:00,
2013-02-18 03:23:00,-13.2,-18.6,30.10,WSW,247,3.2,-999.0,76,-99.99,,,0.00,Acu-Link.com,2013-02-18 12:23:00,
2013-02-18 03:38:00,-12.8,-18.2,30.10,SSW,202,3.2,-999.0,76,-99.99,,,0.00,Acu-Link.com,2013-02-18 12:38:00,
2013-02-18 03:53:00,-13.4,-18.8,30.11,SSW,202,2.7,-999.0,76,-99.99,,,0.00,Acu-Link.com,2013-02-18 12:53:00,
2013-02-18 04:09:00,-14.6,-19.9,30.11,SSW,202,1.7,-999.0,76,-99.99,,,0.00,Acu-Link.com,2013-02-18 13:09:00,
2013-02-18 04:24:00,-13.7,-19.0,30.11,SSW,202,2.2,-999.0,76,-99.99,,,0.00,Acu-Link.com,2013-02-18 13:24:00,
2013-02-18 04:39:00,-14.1,-19.4,30.11,SSW,202,2.7,-999.0,76,-99.99,,,0.00,Acu-Link.com,2013-02-18 13:39:00,
2013-02-18 04:54:00,-15.9,-21.4,30.11,SSW,202,1.7,-999.0,75,-99.99,,,0.00,Acu-Link.com,2013-02-18 13:54:00,
2013-02-18 05:10:00,-15.2,-20.5,30.11,SSW,202,2.2,-999.0,76,-99.99,,,0.00,Acu-Link.com,2013-02-18 14:10:00,
2013-02-18 05:25:00,-16.1,-21.6,30.11,SSW,202,2.7,-999.0,75,-99.99,,,0.00,Acu-Link.com,2013-02-18 14:25:00,
2013-02-18 05:53:00,-16.4,-21.9,30.11,SSW,202,2.2,-999.0,75,-99.99,,,0.00,Acu-Link.com,2013-02-18 14:53:00,
2013-02-18 06:09:00,-17.9,-23.4,30.12,SSW,202,2.7,-999.0,75,-99.99,,,0.00,Acu-Link.com,2013-02-18 15:09:00,
2013-02-18 06:25:00,-19.5,-25.4,30.12,SSW,202,2.2,-999.0,73,-99.99,,,0.00,Acu-Link.com,2013-02-18 15:25:00,
2013-02-18 06:42:00,-20.4,-26.6,30.11,SSW,202,2.7,-999.0,72,-99.99,,,0.00,Acu-Link.com,2013-02-18 15:42:00,
2013-02-18 06:57:00,-19.1,-24.8,30.12,SSW,202,2.7,-999.0,74,-99.99,,,0.00,Acu-Link.com,2013-02-18 15:57:00,
2013-02-18 07:12:00,-21.5,-28.1,30.11,SSW,202,2.2,-999.0,70,-99.99,,,0.00,Acu-Link.com,2013-02-18 16:12:00,
2013-02-18 07:28:00,-19.7,-25.6,30.11,SSW,202,2.2,-999.0,73,-99.99,,,0.00,Acu-Link.com,2013-02-18 16:28:00,
2013-02-18 07:44:00,-21.3,-27.7,30.11,SSW,202,2.7,-999.0,71,-99.99,,,0.00,Acu-Link.com,2013-02-18 16:44:00,
2013-02-18 07:59:00,-21.6,-27.7,30.11,SSW,202,0.0,-999.0,72,-99.99,,,0.00,Acu-Link.com,2013-02-18 16:59:00,
2013-02-18 08:14:00,-22.7,-29.0,30.12,SSW,202,0.0,-999.0,71,-99.99,,,0.00,Acu-Link.com,2013-02-18 17:14:00,
2013-02-18 08:30:00,-23.3,-29.9,30.12,SSW,202,1.7,-999.0,70,-99.99,,,0.00,Acu-Link.com,2013-02-18 17:30:00,
2013-02-18 08:45:00,-23.3,-29.9,30.12,SSW,202,1.7,-999.0,70,-99.99,,,0.00,Acu-Link.com,2013-02-18 17:45:00,
2013-02-18 09:00:00,-24.2,-30.7,30.13,SSW,202,0.0,-999.0,70,-99.99,,,0.00,Acu-Link.com,2013-02-18 18:00:00,
2013-02-18 09:15:00,-24.2,-31.0,30.12,SSW,202,1.7,-999.0,69,-99.99,,,0.00,Acu-Link.com,2013-02-18 18:15:00,
2013-02-18 09:31:00,-23.8,-30.6,30.13,SSW,202,1.7,-999.0,69,-99.99,,,0.00,Acu-Link.com,2013-02-18 18:31:00,
2013-02-18 09:46:00,-23.3,-29.9,30.12,SSW,202,0.0,-999.0,70,-99.99,,,0.00,Acu-Link.com,2013-02-18 18:46:00,
2013-02-18 10:01:00,-23.1,-29.7,30.13,SSW,202,0.0,-999.0,70,-99.99,,,0.00,Acu-Link.com,2013-02-18 19:01:00,
2013-02-18 10:16:00,-22.5,-29.1,30.13,SSW,202,1.1,-999.0,70,-99.99,,,0.00,Acu-Link.com,2013-02-18 19:16:00,
2013-02-18 10:31:00,-21.3,-28.0,30.13,SSW,202,0.0,-999.0,70,-99.99,,,0.00,Acu-Link.com,2013-02-18 19:31:00,
2013-02-18 10:47:00,-20.2,-26.9,30.13,SSW,202,1.1,-999.0,70,-99.99,,,0.00,Acu-Link.com,2013-02-18 19:47:00,
2013-02-18 11:02:00,-17.3,-23.8,30.13,SSW,202,1.7,-999.0,71,-99.99,,,0.00,Acu-Link.com,2013-02-18 20:02:00,
2013-02-18 11:17:00,-17.7,-24.2,30.12,SSW,202,0.0,-999.0,71,-99.99,,,0.00,Acu-Link.com,2013-02-18 20:17:00,
2013-02-18 11:48:00,-14.4,-20.5,30.14,SSW,202,0.0,-999.0,73,-99.99,,,0.00,Acu-Link.com,2013-02-18 20:48:00,
2013-02-18 12:03:00,-9.9,-15.9,30.13,SSW,202,0.0,-999.0,74,-99.99,,,0.00,Acu-Link.com,2013-02-18 21:03:00,
2013-02-18 12:18:00,-10.1,-16.9,30.13,SSW,202,2.2,-999.0,71,-99.99,,,0.00,Acu-Link.com,2013-02-18 21:18:00,
2013-02-18 12:33:00,-7.2,-13.5,30.13,SSW,202,2.2,-999.0,73,-99.99,,,0.00,Acu-Link.com,2013-02-18 21:33:00,
2013-02-18 12:49:00,-8.5,-14.8,30.13,East,90,2.7,-999.0,73,-99.99,,,0.00,Acu-Link.com,2013-02-18 21:49:00,
2013-02-18 13:04:00,-7.2,-13.5,30.13,ESE,112,1.1,-999.0,73,-99.99,,,0.00,Acu-Link.com,2013-02-18 22:04:00,
2013-02-18 13:19:00,-3.5,-9.9,30.13,ESE,112,0.0,-999.0,73,-99.99,,,0.00,Acu-Link.com,2013-02-18 22:19:00,
2013-02-18 13:35:00,-3.1,-9.8,30.12,ESE,112,0.0,-999.0,72,-99.99,,,0.00,Acu-Link.com,2013-02-18 22:35:00,
2013-02-18 13:50:00,-2.2,-9.0,30.13,SE,135,0.0,-999.0,72,-99.99,,,0.00,Acu-Link.com,2013-02-18 22:50:00,
2013-02-18 14:05:00,-3.5,-10.8,30.12,East,90,1.1,-999.0,70,-99.99,,,0.00,Acu-Link.com,2013-02-18 23:05:00,
2013-02-18 14:20:00,-7.1,-14.0,30.12,NE,45,0.0,-999.0,71,-99.99,,,0.00,Acu-Link.com,2013-02-18 23:20:00,
2013-02-18 14:35:00,-5.6,-13.1,30.12,North,0,0.0,-999.0,69,-99.99,,,0.00,Acu-Link.com,2013-02-18 23:35:00,
2013-02-18 14:51:00,-8.1,-17.3,30.12,North,0,2.2,-999.0,63,-99.99,,,0.00,Acu-Link.com,2013-02-18 23:51:00,
2013-02-18 15:06:00,-6.9,-15.5,30.11,North,0,2.7,-999.0,65,-99.99,,,0.00,Acu-Link.com,2013-02-19 00:06:00,
2013-02-18 15:21:00,-6.7,-15.6,30.11,North,0,0.0,-999.0,64,-99.99,,,0.00,Acu-Link.com,2013-02-19 00:21:00,
2013-02-18 15:36:00,-7.2,-16.1,30.11,North,0,0.0,-999.0,64,-99.99,,,0.00,Acu-Link.com,2013-02-19 00:36:00,
2013-02-18 15:52:00,-6.9,-15.5,30.10,North,0,0.0,-999.0,65,-99.99,,,0.00,Acu-Link.com,2013-02-19 00:52:00,
2013-02-18 16:07:00,-9.8,-18.0,30.10,North,0,2.2,-999.0,66,-99.99,,,0.00,Acu-Link.com,2013-02-19 01:07:00,
2013-02-18 16:22:00,-10.3,-18.2,30.10,North,0,3.2,-999.0,67,-99.99,,,0.00,Acu-Link.com,2013-02-19 01:22:00,
2013-02-18 16:37:00,-10.5,-18.4,30.10,North,0,2.2,-999.0,67,-99.99,,,0.00,Acu-Link.com,2013-02-19 01:37:00,
2013-02-18 16:53:00,-12.1,-19.6,30.09,North,0,4.2,-999.0,68,-99.99,,,0.00,Acu-Link.com,2013-02-19 01:53:00,
2013-02-18 17:08:00,-12.8,-20.0,30.08,North,0,6.3,-999.0,69,-99.99,,,0.00,Acu-Link.com,2013-02-19 02:08:00,
2013-02-18 17:23:00,-13.7,-20.6,30.09,North,0,3.7,-999.0,70,-99.99,,,0.00,Acu-Link.com,2013-02-19 02:23:00,
2013-02-18 17:39:00,-15.7,-22.5,30.09,North,0,3.2,-999.0,70,-99.99,,,0.00,Acu-Link.com,2013-02-19 02:39:00,
2013-02-18 17:54:00,-16.6,-22.9,30.08,North,0,2.7,-999.0,72,-99.99,,,0.00,Acu-Link.com,2013-02-19 02:54:00,
2013-02-18 18:09:00,-17.5,-23.8,30.08,North,0,2.2,-999.0,72,-99.99,,,0.00,Acu-Link.com,2013-02-19 03:09:00,
2013-02-18 18:24:00,-18.4,-24.4,30.09,North,0,2.2,-999.0,73,-99.99,,,0.00,Acu-Link.com,2013-02-19 03:24:00,
2013-02-18 18:39:00,-18.6,-24.6,30.08,North,0,1.7,-999.0,73,-99.99,,,0.00,Acu-Link.com,2013-02-19 03:39:00,
2013-02-18 18:54:00,-22.0,-28.6,30.08,North,0,0.0,-999.0,70,-99.99,,,0.00,Acu-Link.com,2013-02-19 03:54:00,
2013-02-18 19:09:00,-22.2,-28.3,30.08,North,0,1.1,-999.0,72,-99.99,,,0.00,Acu-Link.com,2013-02-19 04:09:00,
2013-02-18 19:25:00,-22.7,-28.8,30.08,North,0,0.0,-999.0,72,-99.99,,,0.00,Acu-Link.com,2013-02-19 04:25:00,
2013-02-18 19:40:00,-23.3,-29.6,30.07,North,0,2.7,-999.0,71,-99.99,,,0.00,Acu-Link.com,2013-02-19 04:40:00,
2013-02-18 19:55:00,-23.3,-29.6,30.08,North,0,2.2,-999.0,71,-99.99,,,0.00,Acu-Link.com,2013-02-19 04:55:00,
2013-02-18 20:11:00,-24.7,-31.2,30.08,North,0,0.0,-999.0,70,-99.99,,,0.00,Acu-Link.com,2013-02-19 05:11:00,
2013-02-18 20:38:00,-27.4,-34.4,30.05,North,0,1.1,-999.0,68,-99.99,,,0.00,Acu-Link.com,2013-02-19 05:38:00,
2013-02-18 20:56:00,-27.4,-34.4,30.05,North,0,3.2,-999.0,68,-99.99,,,0.00,Acu-Link.com,2013-02-19 05:56:00,
2013-02-18 21:20:00,-28.8,-35.7,30.04,North,0,2.2,-999.0,68,-99.99,,,0.00,Acu-Link.com,2013-02-19 06:20:00,
2013-02-18 21:35:00,-29.6,-36.7,30.04,North,0,1.7,-999.0,67,-99.99,,,0.00,Acu-Link.com,2013-02-19 06:35:00,
2013-02-18 21:50:00,-30.6,-38.0,30.04,North,0,1.7,-999.0,66,-99.99,,,0.00,Acu-Link.com,2013-02-19 06:50:00,
2013-02-18 22:06:00,-32.1,-39.7,30.05,North,0,0.0,-999.0,65,-99.99,,,0.00,Acu-Link.com,2013-02-19 07:06:00,
2013-02-18 22:21:00,-32.3,-39.8,30.05,North,0,0.0,-999.0,65,-99.99,,,0.00,Acu-Link.com,2013-02-19 07:21:00,
2013-02-18 22:36:00,-32.8,-40.3,30.04,North,0,0.0,-999.0,65,-99.99,,,0.00,Acu-Link.com,2013-02-19 07:36:00,
2013-02-18 22:52:00,-32.1,-39.7,30.04,North,0,2.2,-999.0,65,-99.99,,,0.00,Acu-Link.com,2013-02-19 07:52:00,
2013-02-18 23:07:00,-33.5,-41.3,30.04,North,0,2.2,-999.0,64,-99.99,,,0.00,Acu-Link.com,2013-02-19 08:07:00,
2013-02-18 23:22:00,-31.4,-38.7,30.03,North,0,2.2,-999.0,66,-99.99,,,0.00,Acu-Link.com,2013-02-19 08:22:00,
2013-02-18 23:37:00,-34.2,-41.9,30.03,North,0,0.0,-999.0,64,-99.99,,,0.00,Acu-Link.com,2013-02-19 08:37:00,
2013-02-18 23:52:00,-35.0,-42.7,30.02,North,0,0.0,-999.0,64,-99.99,,,0.00,Acu-Link.com,2013-02-19 08:52:00,